Hourly Data Report for October 06, 2014

All times are specified in Local Standard Time (LST). Add 1 hour to adjust for Daylight Saving Time where and when it is observed.

PANGNIRTUNG
NUNAVUT

66°08'36.300" N
65°42'40.500" W
22.60 m
2403049
71826
WXP

Download Data

Hourly Data (October 2014)
Hourly Data Report for October 6, 2014
Temp Definition
°C
Dew Point Temp Definition
°C
Rel Hum Definition
%
Wind Dir Definition
10's deg

Wind Spd Definition
km/h
Visibility Definition
km
Stn Press Definition
kPa
Hmdx Definition


Wind Chill Definition


Weather Definition


TIME
00:00 0.3 -4.4 71 9 14   101.86     LegendNANA
01:00 0.6 -3.7 73 8 18   101.78     LegendNANA
02:00 0.7 -4.0 71 10 10   101.77     LegendNANA
03:00 1.0 -3.8 70 7 4   101.75     LegendNANA
04:00 1.0 -2.9 75 7 10   101.76     LegendNANA
05:00 0.7 -3.5 73 6 18   101.70     LegendNANA
06:00 0.5 -3.1 77 7 19   101.73     LegendNANA
07:00 1.0 -3.2 74 7 18   101.73     LegendNANA
08:00 1.4 -3.6 70 8 16   101.72     LegendNANA
09:00 1.5 -3.2 71 9 12   101.72     LegendNANA
10:00 2.4 -3.3 66 9 11   101.71     LegendNANA
11:00 2.5 -3.3 66 8 14   101.74     LegendNANA
12:00 2.2 -3.5 66 8 16   101.76     LegendNANA
13:00 2.5 -3.3 65 7 15   101.77     LegendNANA
14:00 2.5 -3.0 67 7 13   101.77     LegendNANA
15:00 2.5 -3.7 64 7 18   101.77     LegendNANA
16:00 2.8 -3.5 63 10 10   101.78     LegendNANA
17:00 2.5 -2.7 69 13 15   101.77     LegendNANA
18:00 2.5 -2.6 69 14 7   101.80     LegendNANA
19:00 3.3 -3.7 60 9 6   101.82     LegendNANA
20:00 3.5 -3.8 59 14 8   101.82     LegendNANA
21:00 3.0 -2.4 68 13 11   101.82     LegendNANA
22:00 2.2 -2.2 72 22 6   101.79     LegendNANA
23:00 2.2 -2.2 72 22 4   101.80     LegendNANA

Notes on Data Quality.

Legend

  • E = Estimated
  • M = Missing
  • NA = Not Available
  • ‡ = Partner data that is not subject to review by the National Climate Archives
Date modified: